Location: Lane
(33.5226°N, 79.8788°W)
Time: 19:41:14
(UTC+00:00)

Courier 1B Rocket - Pass Details

Date: 08 October 2022
Orbit: 920 x 1202 km, 28.3° (Epoch: 01 December)

Event Time Altitude Azimuth Distance (km) Brightness Sun altitude
Rises 21:25:35 0° 238° (WSW) 4,015 9.8 17.2°
Reaches altitude 10° 21:28:38 10° 231° (SW) 3,020 9.2 16.6°
Maximum altitude 21:35:29 40° 164° (SSE) 1,539 6.3 15.3°
Drops below altitude 10° 21:41:54 10° 97° (E) 2,832 6.9 14.0°
Sets 21:44:40 0° 90° (E) 3,741 7.5 13.4°
